"Pseudo-MPEC" for CAVWYR2

Created 2024 Oct 9 1:22:03 UT using Find_Orb

Click here for an explanation of pseudo-MPECs

 
 Astrometry: 
     CAVWYR2*1C2024 09 24.39098001 47 28.230+02 56 25.15   ~9P1M 19.69GVNEOCPG96
     CAVWYR2 1C2024 09 24.39607101 47 18.074+02 56 18.42   ~9P1M 19.93GVNEOCPG96
     CAVWYR2 1C2024 09 24.40115301 47 08.077+02 56 12.41   ~9P1M 19.98GVNEOCPG96
     CAVWYR2 1C2024 09 24.40623901 46 58.062+02 56 05.78   ~9P1M 20.70GVNEOCPG96
     CAVWYR2 KC2024 09 24.43619101 45 59.620+02 55 29.60   ~9P1M 20.20GVNEOCPI52
     CAVWYR2 KC2024 09 24.43674201 45 58.570+02 55 29.00   ~9P1M 20.20GVNEOCPI52

Station data:
(G96) Mt. Lemmon Survey  (N32.442729 W110.788720)  US/Arizona.  Observer E.
   J. Christensen. 1.5-m reflector + 10K CCD.
(I52) Steward Observatory, Mt. Lemmon Station  (N32.442570 W110.788920)
   US/Arizona.  Observers T. A. Pruyne, B. M. Africano, E. J. Christensen, G.
   A. Farneth, D. C. Fuls, A. R. Gibbs, A. D. Grauer, H. Gröller, J. A.
   Johnson, R. A. Kowalski, S. M. Larson, G. J. Leonard, D. Rankin, R. L.
   Seaman, F. C. Shelly, K. W. Wierzchoś. 1.0-m prime focus + CCD.

Orbital elements:  CAVWYR2
   Perihelion 2024 Jun 27.20777 +/- 30.6 TT =  4:59:11 (JD 2460488.70777)
Epoch 2024 Sep 24.0 TT = JDT 2460577.5   Earth MOID: 0.0057   Ve: 0.0134
M  95.58344618 +/- 47               (J2000 ecliptic)             AutoNEOCP
n   1.07648440 +/- 0.332            Peri.  232.32178 +/- 37
a   0.94289692 +/- 0.194            Node     6.67152 +/- 42
e   0.2541980 +/- 0.214             Incl.    2.08070 +/- 1.2
P   0.916/334.416d         H 27.40  G  0.15   U 12.0  SR
q 0.70321437 +/- 0.113    Q 1.18257948 +/- 0.946
From 6 observations 2024 Sept. 24 (65.9 min); mean residual 0".48
Residuals in arcseconds: 
240924 G96  1.2+  .43+    240924 G96  .37-  .00     240924 I52  .03+  .04+    
240924 G96  .53-  .15-    240924 G96  .63-  .45-    240924 I52  .32+  .12+    

Ephemerides (geocentric):
Date (UTC) HH   RA             Dec           delta  r     elong  mag " sig PA
---- --------  ------------   ------------  ------ ------ -----  --- --------
2024 10 09 01  23 34 07.405   +01 07 27.02  .08291 1.0764 158.3 23.2 706'  94
2024 10 09 02  23 34 02.171   +01 07 23.58  .08310 1.0765 158.3 23.2 707'  94
2024 10 09 03  23 33 56.967   +01 07 20.19  .08329 1.0767 158.2 23.2 708'  94
2024 10 09 04  23 33 51.794   +01 07 16.84  .08348 1.0768 158.1 23.2 709'  94
2024 10 09 05  23 33 46.650   +01 07 13.53  .08367 1.0769 158.1 23.2 710'  94
2024 10 09 06  23 33 41.537   +01 07 10.26  .08386 1.0771 158.0 23.2 711'  94
2024 10 09 07  23 33 36.453   +01 07 07.03  .08405 1.0772 158.0 23.2 712'  94
2024 10 09 08  23 33 31.399   +01 07 03.84  .08425 1.0773 157.9 23.2 712'  94
2024 10 09 09  23 33 26.375   +01 07 00.70  .08444 1.0775 157.8 23.2 713'  94
2024 10 09 10  23 33 21.380   +01 06 57.59  .08463 1.0776 157.8 23.2 714'  94
2024 10 09 11  23 33 16.414   +01 06 54.53  .08482 1.0777 157.7 23.2 715'  94
2024 10 09 12  23 33 11.477   +01 06 51.50  .08501 1.0779 157.6 23.2 716'  94
2024 10 09 13  23 33 06.569   +01 06 48.52  .08520 1.0780 157.6 23.2 717'  94
2024 10 09 14  23 33 01.690   +01 06 45.57  .08539 1.0781 157.5 23.2 718'  94
2024 10 09 15  23 32 56.839   +01 06 42.67  .08559 1.0783 157.5 23.2 719'  94
2024 10 09 16  23 32 52.016   +01 06 39.81  .08578 1.0784 157.4 23.3 720'  94
2024 10 09 17  23 32 47.222   +01 06 36.98  .08597 1.0786 157.3 23.3 721'  94
2024 10 09 18  23 32 42.456   +01 06 34.20  .08616 1.0787 157.3 23.3 721'  94
2024 10 09 19  23 32 37.718   +01 06 31.45  .08635 1.0788 157.2 23.3 722'  94
2024 10 09 20  23 32 33.007   +01 06 28.74  .08654 1.0790 157.2 23.3 723'  94
2024 10 09 21  23 32 28.324   +01 06 26.08  .08674 1.0791 157.1 23.3 724'  94
2024 10 09 22  23 32 23.668   +01 06 23.45  .08693 1.0792 157.0 23.3 725'  94
2024 10 09 23  23 32 19.040   +01 06 20.86  .08712 1.0794 157.0 23.3 726'  94
2024 10 10 00  23 32 14.439   +01 06 18.31  .08731 1.0795 156.9 23.3 727'  94
2024 10 10 01  23 32 09.865   +01 06 15.80  .08751 1.0796 156.9 23.3 727'  94
2024 10 10 02  23 32 05.318   +01 06 13.33  .08770 1.0798 156.8 23.3 728'  94
2024 10 10 03  23 32 00.797   +01 06 10.89  .08789 1.0799 156.8 23.3 729'  94
2024 10 10 04  23 31 56.303   +01 06 08.49  .08808 1.0800 156.7 23.3 730'  94
2024 10 10 05  23 31 51.836   +01 06 06.14  .08828 1.0802 156.6 23.3 731'  94
2024 10 10 06  23 31 47.394   +01 06 03.81  .08847 1.0803 156.6 23.3 732'  94
2024 10 10 07  23 31 42.979   +01 06 01.53  .08866 1.0804 156.5 23.4 732'  94
2024 10 10 08  23 31 38.590   +01 05 59.29  .08885 1.0806 156.5 23.4 733'  94
2024 10 10 09  23 31 34.227   +01 05 57.08  .08905 1.0807 156.4 23.4 734'  94
2024 10 10 10  23 31 29.890   +01 05 54.91  .08924 1.0808 156.3 23.4 735'  94
2024 10 10 11  23 31 25.578   +01 05 52.78  .08943 1.0810 156.3 23.4 736'  94
2024 10 10 12  23 31 21.291   +01 05 50.68  .08963 1.0811 156.2 23.4 736'  94
2024 10 10 13  23 31 17.030   +01 05 48.62  .08982 1.0812 156.2 23.4 737'  94
2024 10 10 14  23 31 12.794   +01 05 46.60  .09001 1.0814 156.1 23.4 738'  94
2024 10 10 15  23 31 08.583   +01 05 44.62  .09021 1.0815 156.1 23.4 739'  94
2024 10 10 16  23 31 04.397   +01 05 42.67  .09040 1.0816 156.0 23.4 740'  94
2024 10 10 17  23 31 00.236   +01 05 40.76  .09059 1.0818 155.9 23.4 740'  94
2024 10 10 18  23 30 56.100   +01 05 38.89  .09079 1.0819 155.9 23.4 741'  94
2024 10 10 19  23 30 51.988   +01 05 37.05  .09098 1.0820 155.8 23.4 742'  94
2024 10 10 20  23 30 47.901   +01 05 35.25  .09117 1.0822 155.8 23.4 743'  94
2024 10 10 21  23 30 43.837   +01 05 33.48  .09137 1.0823 155.7 23.4 743'  94
2024 10 10 22  23 30 39.798   +01 05 31.75  .09156 1.0824 155.7 23.4 744'  94
2024 10 10 23  23 30 35.784   +01 05 30.06  .09176 1.0826 155.6 23.5 745'  94
2024 10 11 00  23 30 31.793   +01 05 28.40  .09195 1.0827 155.5 23.5 746'  94